Regional Weather Roundup
Issued by NWS Jackson, KY

Home | Current Version | Previous Version | Text Only | Print | Product List | Glossary Off
Versions: 1 2 3 4 5 6 7 8 9 10 11 12 13 14 15 16 17 18 19 20 21 22 23 24 25 26 27 28 29 30 31 32 33 34 35 36 37 38 39 40 41 42 43 44 45 46 47 48 49 50

000
ASUS43 KJKL 310605
RWRJKL

EAST KENTUCKY HOURLY WEATHER ROUNDUP
NATIONAL WEATHER SERVICE JACKSON KY
200 AM EDT FRI OCT 31 2014

NOTE: "FAIR" INDICATES FEW OR NO CLOUDS BELOW 12,000 FEET WITH
NO SIGNIFICANT WEATHER AND/OR OBSTRUCTIONS TO VISIBILITY.

* THESE REPORTS ARE NOT UNDER NWS QUALITY CONTROL AND MAY NOT
  REPORT WEATHER SUCH AS PRECIPITATION AND FOG.

KYZ079-080-083-085-087-088-110-112-115-119-120-310700
...EASTERN KENTUCKY...

CITY           SKY/WX    TMP DP  RH WIND       PRES   REMARKS
JACKSON        CLEAR     40  33  76 CALM      30.02F
6HR MIN TEMP:  40; 6HR MAX TEMP:  46;

LONDON         CLEAR     40  35  83 CALM      30.02F
6HR MIN TEMP:  40; 6HR MAX TEMP:  50;

SOMERSET*      CLOUDY    37  36  93 CALM      30.04F
WILLIAMSBURG*  CLEAR     36  36 100 MISG      30.03S
MIDDLESBORO*   CLEAR     36  36  99 CALM      30.03S
6HR MIN TEMP:  36; 6HR MAX TEMP:  47;

HARLAN APT*    MOCLDY    37  37 100 CALM      30.02S
BLACK MTN*       N/A     39  34  81 SW2         N/A
PIKEVILLE APT* CLEAR     37  34  87 CALM      30.02S
BIG SANDY*     PTCLDY    36  35  96 CALM      30.03S
6HR MIN TEMP:  36; 6HR MAX TEMP:  42;

MOREHEAD APT*  CLOUDY    41  34  75 CALM      30.05S
$$

KYZ035-036-041-042-044-050-067-078-099-310700
...CENTRAL KENTUCKY...

CITY           SKY/WX    TMP DP  RH WIND       PRES   REMARKS
MT STERLING*   CLOUDY    34  34 100 CALM      30.04F
FLEMING/MASON* MOCLDY    40  35  84 CALM      30.04S
DANVILLE*      CLOUDY    39  37  93 CALM      30.04S
RICHMOND*      CLOUDY    36  34  93 CALM      30.02F
LEXINGTON      CLOUDY    44  39  82 CALM      30.03S
6HR MIN TEMP:  40; 6HR MAX TEMP:  47;

FRANKFORT      CLOUDY    42  38  85 N3        30.02F
6HR MIN TEMP:  37; 6HR MAX TEMP:  47;

$$

KYZ091>093-OHZ055-061-077-WVZ005-015-034-035-042-310700
...SOUTHERN OHIO/WEST VIRGINIA...

CITY           SKY/WX    TMP DP  RH WIND       PRES   REMARKS
COVINGTON      CLOUDY    46  35  65 CALM      30.02F
COLUMBUS       CLOUDY    45  34  65 CALM      30.03F
DAYTON         CLOUDY    44  36  73 CALM      30.03F
WILMINGTON     CLOUDY    38  33  82 SE3       30.02F
HUNTINGTON     PTCLDY    37  36  96 CALM      30.03F
CHARLESTON     PTCLDY    36  34  92 SE3       30.03F
PINEVILLE*     PTCLDY    33  33 100 MISG      30.07S FOG
BECKLEY        CLEAR     33  29  85 CALM      30.00F
BLUEFIELD      PTCLDY    37  30  75 CALM      30.00F
$$

VAZ002-007-008-TNZ017-027-036-066-071-310700
...SOUTHWEST VIRGINIA/EAST TENNESSEE...

CITY           SKY/WX    TMP DP  RH WIND       PRES   REMARKS
WISE*          PTCLDY    37  34  87 CALM      30.01S
JONESVILLE*    PTCLDY    36  36 100 CALM      30.03S FOG
ABINGDON*      CLEAR     39  36  87 CALM      30.00S
BRISTOL        PTCLDY    38  37  97 CALM      30.00F
KNOXVILLE      PTCLDY    43  40  89 CALM      30.00F
OAK RIDGE      CLEAR     42  39  89 CALM      30.02F
CROSSVILLE     CLEAR     39  35  86 CALM      30.02S
NASHVILLE      CLOUDY    51  43  74 CALM      30.01F
$$

...KEY TO REMARKS...
VSB - VISIBILITY IN MILES
WCI - WIND CHILL INDEX
HX  - HEAT INDEX

$$



USA.gov is the U.S. government's official web portal to all federal, state and local government web resources and services.